Temperature
17 17 17 17 17 17 17 17 17 17 17 17 17 17 17 17 17 17 17 17 17 17 18 18 18 17 17 18 18 18 18 18 18 18 18 18 18 18 18 18 18 18 18
17 17 17 17 17 17 17 17 17 17 17 17 17 17 17 17 17 17 17 17 17 17 17 17 17 17 17 17 17 17 18 18 18 18 18 18 18 18 18 18 18 18 18
17 17 17 17 17 17 17 17 17 17 17 17 17 17 17 17 17 17 17 17 17 17 17 17 17 17 17 17 17 17 17 17 18 18 18 18 18 18 18 18 18 18 18
17 17 17 17 17 17 17 17 17 17 17 17 16 16 16 16 16 16 16 16 17 17 17 17 17 17 17 17 17 17 17 17 17 17 18 18 18 18 18 18 18 18 18
17 17 17 17 17 17 17 17 17 16 16 16 16 16 16 16 16 16 16 16 16 16 16 17 17 17 17 17 17 17 17 17 17 17 17 17 17 17 18 18 18 18 18
17 17 17 17 17 17 17 17 16 16 16 16 16 16 16 16 16 16 16 16 16 16 16 16 16 16 16 17 17 17 17 17 17 17 17 17 17 17 17 17 18 18 18
17 17 17 16 16 16 16 16 16 16 16 16 16 16 16 16 16 15 15 16 16 16 16 16 16 16 16 16 17 17 16 17 17 17 17 17 17 17 17 17 17 18 18
17 17 16 16 16 16 16 16 16 16 16 16 16 16 15 15 15 15 15 15 15 16 16 16 16 16 16 16 16 16 16 17 17 17 17 17 17 17 17 17 17 17 17
17 16 16 16 16 16 16 16 15 15 15 15 15 15 15 15 15 15 15 15 15 15 15 16 16 16 16 16 16 16 16 16 17 17 17 17 17 17 17 17 17 17 17
17 16 16 16 16 16 16 16 16 15 15 15 15 15 15 15 15 15 15 15 15 15 15 15 15 16 16 16 16 16 16 16 16 16 16 16 16 17 17 17 17 17 17
17 16 16 16 16 16 16 16 16 16 16 15 15 15 15 15 15 15 15 15 15 15 15 15 15 15 16 16 16 16 16 16 16 16 16 16 16 16 16 17 17 17 17
17 17 16 16 16 16 16 16 16 16 16 16 15 15 15 15 15 15 15 15 15 15 15 15 15 15 15 16 16 16 16 16 16 16 16 16 16 16 16 16 17 17 17
17 17 17 16 16 16 16 16 16 16 16 16 15 15 15 15 15 15 15 15 15 15 15 15 15 15 15 15 16 16 16 16 16 16 16 16 16 16 16 16 16 16 16
17 17 17 17 16 16 16 16 16 16 16 16 15 15 15 16 16 16 16 16 15 15 15 15 15 15 15 15 15 16 16 16 16 16 16 16 16 16 16 16 16 16 16
17 17 17 17 17 16 16 16 16 16 16 16 15 15 16 16 16 16 16 15 15 15 15 15 15 15 15 15 15 15 15 15 15 15 16 16 16 16 16 16 16 16 16
18 17 17 17 17 16 16 16 16 16 16 16 16 15 16 16 16 15 15 15 15 15 15 15 15 15 15 15 15 15 15 15 15 15 15 15 15 16 16 16 16 16 16
18 17 17 17 17 16 16 16 16 16 16 16 16 15 15 15 15 15 15 15 15 15 15 15 15 15 15 15 15 15 15 15 15 15 15 15 15 15 15 15 15 15 15
18 18 17 17 17 17 16 16 16 16 16 16 15 15 15 15 15 15 15 15 15 15 15 15 15 15 15 15 15 15 15 15 15 15 15 15 15 15 15 15 15 15 15
18 18 17 17 17 17 16 16 16 16 16 15 15 15 15 15 15 15 15 15 15 15 15 15 15 15 15 15 15 15 15 15 14 14 15 15 15 15 15 15 15 15 15
18 18 18 17 17 17 17 16 16 16 16 15 15 15 15 15 15 15 15 15 15 15 15 15 15 15 15 15 14 14 14 14 14 14 14 14 14 14 14 15 15 15 15
18 18 18 17 17 17 17 16 16 16 16 15 15 15 15 15 15 15 15 15 15 15 15 15 15 14 14 14 14 14 14 14 14 14 14 14 14 14 14 14 14 15 15
18 18 18 17 17 17 17 16 16 16 16 15 15 15 15 15 15 15 15 15 15 15 15 15 15 14 14 14 14 14 14 14 14 14 14 14 14 14 14 14 14 14 14
18 18 18 18 17 17 17 16 16 16 16 15 15 15 15 15 15 15 15 15 15 15 15 14 14 14 14 14 14 14 14 13 13 13 14 14 14 14 14 14 14 14 14
19 18 18 18 17 17 17 17 16 16 16 16 15 15 15 15 15 15 15 15 15 14 14 14 14 14 14 14 14 14 14 13 13 13 13 13 13 13 13 13 13 13 14
19 18 18 18 18 17 17 17 17 16 16 16 15 15 15 15 15 15 15 14 14 14 14 14 14 14 14 14 14 13 13 13 13 13 13 13 13 13 13 13 13 13 13
19 19 18 18 18 17 17 17 17 16 16 16 16 15 15 15 15 15 14 14 14 14 14 14 14 14 13 13 13 13 13 13 13 13 12 12 13 13 13 13 13 13 13
Wind_Speed
2 2 6 9 11 12 12 13 13 14 14 13 13 13 13 12 12 12 11 11 11 10 10 10 10 9 9 9 8 8 8 7 7 7 6 6 6 6 7 6 6 5 5
1 4 7 10 12 12 13 13 13 13 13 13 12 12 12 12 11 11 11 10 10 10 10 10 10 9 9 8 8 7 7 7 7 6 6 6 6 6 7 7 6 5 5
4 6 9 11 12 12 12 13 13 12 12 12 12 12 12 11 11 11 10 10 10 10 9 9 9 9 8 8 7 7 7 6 7 7 7 6 5 6 6 7 6 6 6
6 7 9 12 12 12 12 12 12 12 12 12 12 12 11 11 11 10 10 10 9 9 9 9 9 9 8 8 8 7 6 6 7 7 6 6 5 5 6 6 7 7 7
6 7 9 11 11 12 12 12 12 12 11 11 11 11 11 10 10 10 9 9 8 8 8 8 9 9 9 8 8 8 7 6 7 6 6 5 5 5 5 6 6 7 7
5 7 8 11 11 11 11 11 11 11 11 10 10 10 10 10 10 9 8 8 7 7 8 8 8 8 8 8 8 8 6 6 6 5 5 4 4 4 5 6 6 6 7
4 6 7 10 11 11 11 10 10 10 10 9 9 9 9 9 9 8 8 8 7 7 8 8 8 9 9 8 8 7 6 6 5 4 3 3 3 4 5 5 6 6 6
5 5 7 9 10 10 10 10 9 9 8 8 8 7 7 7 7 8 7 8 7 7 7 7 8 8 9 9 8 8 7 6 5 4 3 2 2 3 4 5 5 5 5
6 6 6 7 7 8 8 8 8 7 7 7 7 7 7 7 8 8 8 8 8 7 7 7 7 8 8 8 8 8 8 7 6 4 3 3 3 3 4 5 5 5 5
5 5 5 5 6 7 7 7 7 7 7 7 7 7 8 9 9 9 8 8 8 8 8 8 8 8 8 9 8 9 9 8 6 5 4 3 3 4 4 5 5 5 5
3 2 3 3 5 5 6 6 7 8 8 9 9 9 9 9 9 8 9 8 8 9 9 9 9 9 9 9 9 9 8 7 6 5 5 4 4 4 4 5 5 5 5
1 0 1 1 3 4 5 6 7 7 8 8 8 8 8 8 8 8 10 10 10 10 10 10 10 10 9 9 9 9 7 7 6 5 5 5 4 4 5 5 5 6 6
2 1 1 1 2 3 4 5 6 6 7 8 8 8 8 8 9 10 10 10 11 10 10 9 9 9 9 7 7 7 7 6 6 6 7 6 5 5 5 5 6 6 6
3 2 1 2 3 3 4 4 5 5 6 6 7 7 7 6 6 7 7 8 9 8 8 8 7 8 8 8 7 6 7 6 6 7 8 8 7 6 6 6 6 7 7
4 2 2 3 3 3 4 3 5 5 5 5 6 7 7 5 4 5 6 7 8 8 7 6 6 6 6 7 7 7 6 6 7 7 7 9 9 8 7 7 7 8 8
4 4 2 3 3 4 3 3 4 5 6 7 7 7 7 7 5 5 5 6 7 7 7 6 6 5 4 5 6 7 6 7 7 7 7 8 9 9 9 8 8 8 8
5 4 4 4 4 4 4 4 5 6 7 7 7 8 8 8 7 6 4 5 6 7 8 7 7 6 5 5 6 6 6 7 7 8 8 8 9 9 10 10 9 9 9
5 4 4 5 5 5 4 5 5 7 7 7 7 8 9 9 8 7 5 4 7 8 7 4 4 5 5 5 5 5 5 6 7 8 9 10 10 9 10 12 11 11 10
6 5 5 5 6 5 5 6 6 7 7 7 7 8 8 9 9 8 5 5 7 7 5 4 5 4 4 4 4 5 5 5 6 8 9 10 11 11 10 11 12 12 12
5 5 6 6 5 5 5 4 4 5 5 7 7 7 8 8 9 8 6 7 7 5 5 4 5 5 4 3 4 5 5 5 5 7 7 9 11 12 12 11 11 10 12
5 5 5 6 5 5 3 3 3 2 2 3 5 8 8 8 8 8 6 6 6 5 4 4 3 5 5 4 3 4 5 5 6 6 6 7 9 11 13 12 11 11 10
6 6 5 6 5 4 3 3 3 3 2 1 3 6 8 7 7 6 6 4 5 4 6 6 4 3 4 5 3 3 4 5 5 6 5 6 7 9 11 12 13 12 12
7 7 7 6 5 4 4 4 4 3 3 3 3 3 5 7 7 7 6 5 5 4 4 5 4 4 3 4 4 3 3 1 3 4 5 6 7 6 7 10 12 13 13
8 6 6 6 5 5 5 5 5 3 2 1 0 1 3 6 7 7 6 6 5 4 4 4 4 3 3 2 3 4 2 2 1 2 4 4 6 7 7 8 10 12 13
7 7 6 6 5 5 5 6 6 4 2 1 1 2 3 4 6 6 6 5 5 4 4 4 5 5 3 2 2 2 3 3 2 2 2 4 5 4 5 6 7 10 12
6 6 6 6 5 5 5 5 6 6 5 3 2 1 2 2 3 5 5 5 5 4 4 4 4 5 4 3 3 2 2 2 1 1 0 2 3 4 4 5 7 8 11
Wind_Direction
4 15 86 95 97 96 95 93 90 88 87 86 86 86 84 82 80 77 77 75 74 71 69 66 63 62 62 60 59 59 62 61 61 67 60 53 53 57 60 59 55 56 66
88 70 92 98 98 96 94 92 90 87 86 84 82 82 80 79 78 76 73 72 73 70 67 63 60 58 56 54 56 57 59 61 63 63 59 50 50 54 59 59 54 56 65
88 82 94 97 97 96 94 92 89 87 85 83 82 80 78 78 78 75 74 72 69 65 63 59 56 54 51 50 51 54 54 58 63 62 60 46 44 56 58 56 54 58 62
101 95 97 96 97 94 93 91 89 87 85 83 84 81 79 75 73 71 70 67 63 60 58 53 51 48 46 44 46 48 50 60 64 62 52 41 35 54 57 54 55 57 56
98 96 98 97 96 95 93 92 90 88 86 84 83 80 76 72 71 71 68 64 58 54 52 47 44 40 39 40 41 43 50 65 68 61 48 37 32 51 54 51 55 55 52
93 94 101 98 95 94 92 92 90 88 85 83 81 76 72 69 68 66 63 59 54 49 45 41 37 35 36 38 38 39 47 63 67 58 45 34 30 49 52 51 52 51 49
95 90 98 99 95 93 91 89 85 82 81 78 77 71 65 63 61 58 56 53 50 47 43 40 36 36 37 38 37 38 45 63 69 58 43 32 32 48 56 55 47 45 42
96 84 84 94 94 93 91 88 86 80 75 71 68 63 56 52 49 47 47 46 46 44 40 39 39 37 38 38 40 42 48 57 63 56 40 26 34 56 57 55 44 40 35
78 73 67 72 76 79 81 82 80 74 64 58 55 50 44 40 39 39 39 38 39 41 41 41 39 38 37 38 42 44 48 57 58 42 29 30 55 58 51 50 43 34 29
66 62 58 58 62 59 56 59 58 55 49 45 41 39 38 33 28 25 23 26 34 38 41 40 41 41 40 42 44 46 49 52 49 36 22 29 47 50 46 42 39 31 24
72 50 52 51 51 55 48 43 41 38 37 36 33 35 35 29 24 22 22 30 35 38 39 37 40 42 43 41 44 47 47 44 41 30 17 22 36 43 41 35 31 24 15
161 154 55 56 50 48 42 39 35 34 36 36 34 36 38 37 34 34 31 32 33 36 37 38 43 44 43 39 39 44 41 36 34 21 16 20 25 33 32 27 23 15 8
189 172 125 98 69 59 48 43 38 40 42 43 41 43 48 44 38 36 32 26 29 32 34 33 37 38 40 40 38 38 36 33 25 18 13 21 26 27 25 22 16 11 9
165 180 154 111 88 68 64 53 50 49 50 48 44 47 55 47 36 31 30 25 27 27 30 31 31 35 38 40 40 37 33 28 22 17 15 19 21 22 19 18 15 14 14
164 172 155 118 108 90 73 62 62 58 60 60 56 51 60 60 42 35 30 30 27 28 30 27 29 33 34 34 36 37 29 25 24 23 15 17 19 19 17 14 13 14 14
171 170 153 123 121 107 91 81 70 66 65 63 55 51 63 67 60 50 36 30 25 26 35 39 36 35 32 38 34 31 29 26 27 29 24 19 18 19 18 16 14 11 11
169 161 149 136 118 109 100 93 81 71 68 60 53 55 63 65 62 60 47 30 20 30 43 47 40 41 40 39 30 25 30 28 31 29 27 24 20 20 20 20 18 16 13
155 151 151 137 122 114 104 96 82 72 67 57 54 57 60 61 62 60 49 29 25 40 42 45 36 41 38 38 35 24 27 29 29 30 32 29 26 21 19 21 22 21 17
155 150 139 124 125 119 103 92 78 70 61 53 53 52 55 59 61 62 51 32 36 45 38 44 42 45 41 32 39 35 28 29 27 34 33 31 28 26 23 22 22 21 19
146 141 135 123 120 113 97 84 68 56 47 46 46 46 53 57 59 62 54 38 40 46 38 40 49 45 43 26 46 42 31 29 33 32 27 28 28 27 25 25 23 16 16
143 144 144 139 139 129 113 105 92 68 31 26 37 45 51 56 57 58 52 42 40 47 41 39 50 48 32 13 48 26 15 25 35 28 24 28 25 22 24 24 22 20 15
166 166 158 157 158 155 141 131 121 115 82 44 25 40 45 51 53 57 56 46 41 48 42 36 44 54 31 25 62 63 19 4 6 14 17 26 18 19 23 23 23 21 15
176 181 175 169 163 154 137 112 89 67 48 31 16 15 23 44 52 55 58 57 49 52 49 38 44 68 59 28 42 96 101 34 329 343 7 19 13 15 12 15 22 19 16
189 179 168 165 158 151 143 141 140 139 140 185 343 5 22 43 49 51 55 59 58 54 50 39 50 60 82 54 31 43 85 137 103 347 342 359 11 17 9 11 13 14 15
182 174 169 158 152 150 152 153 142 136 141 118 68 49 33 30 41 47 54 61 60 56 54 51 52 54 62 79 65 54 58 54 64 105 339 337 351 354 359 1 10 12 13
174 168 164 160 161 155 155 155 154 152 147 132 112 79 31 15 23 38 56 62 63 60 57 55 57 60 59 66 65 66 85 84 66 93 83 326 330 325 339 357 10 8 11
Height
1538 1537 1538 1539 1539 1539 1540 1540 1540 1540 1541 1541 1541 1541 1541 1541 1541 1541 1541 1541 1541 1541 1541 1541 1540 1540 1540 1540 1540 1540 1540 1540 1540 1540 1540 1540 1540 1540 1540 1539 1539 1539 1539
1538 1539 1539 1540 1540 1541 1541 1541 1542 1542 1542 1542 1542 1542 1542 1542 1542 1542 1542 1542 1542 1542 1542 1541 1541 1541 1541 1541 1541 1541 1541 1541 1541 1541 1541 1541 1541 1541 1540 1540 1540 1539 1539
1539 1540 1540 1541 1542 1542 1542 1543 1543 1543 1543 1543 1543 1543 1543 1543 1543 1543 1543 1543 1543 1543 1542 1542 1542 1542 1542 1542 1541 1541 1542 1542 1542 1542 1542 1542 1542 1541 1541 1541 1540 1540 1540
1541 1542 1542 1543 1543 1543 1544 1544 1544 1544 1545 1545 1544 1544 1544 1544 1544 1543 1543 1543 1543 1543 1543 1543 1543 1542 1542 1542 1542 1542 1542 1542 1542 1543 1543 1543 1542 1542 1542 1542 1541 1541 1541
1543 1543 1544 1544 1545 1545 1545 1546 1546 1546 1546 1546 1546 1545 1545 1545 1544 1544 1544 1544 1544 1544 1543 1543 1543 1543 1543 1543 1543 1543 1543 1543 1543 1543 1544 1543 1543 1543 1543 1543 1542 1542 1542
1544 1545 1546 1546 1546 1547 1547 1547 1548 1548 1548 1547 1547 1547 1546 1546 1546 1545 1545 1544 1544 1544 1544 1544 1543 1543 1543 1543 1543 1543 1543 1543 1544 1544 1544 1544 1544 1544 1544 1543 1543 1543 1542
1546 1547 1547 1548 1548 1549 1549 1549 1549 1549 1549 1549 1549 1549 1548 1548 1547 1547 1546 1546 1545 1545 1545 1544 1544 1544 1544 1544 1544 1544 1544 1544 1544 1544 1545 1545 1545 1545 1545 1544 1544 1544 1543
1549 1549 1550 1550 1551 1551 1551 1551 1552 1552 1552 1551 1551 1550 1550 1549 1549 1548 1547 1547 1546 1546 1546 1545 1545 1545 1545 1545 1545 1545 1545 1545 1545 1545 1545 1545 1546 1546 1545 1545 1545 1544 1544
1551 1552 1552 1552 1552 1553 1553 1553 1554 1554 1554 1553 1553 1552 1552 1551 1550 1550 1549 1548 1547 1547 1546 1546 1546 1546 1546 1546 1546 1545 1546 1546 1546 1546 1546 1546 1546 1546 1546 1546 1545 1545 1544
1553 1554 1554 1554 1555 1555 1555 1555 1555 1555 1555 1555 1554 1554 1553 1553 1552 1551 1550 1549 1549 1548 1547 1547 1547 1547 1547 1547 1546 1546 1546 1546 1546 1546 1546 1546 1547 1547 1546 1546 1546 1545 1545
1555 1556 1556 1556 1557 1557 1557 1557 1557 1557 1557 1557 1556 1556 1555 1554 1553 1552 1552 1551 1550 1549 1549 1548 1548 1548 1548 1547 1547 1547 1547 1547 1547 1547 1547 1547 1547 1547 1547 1546 1546 1545 1545
1556 1557 1558 1558 1558 1558 1559 1559 1559 1559 1558 1558 1558 1557 1556 1556 1555 1554 1553 1552 1551 1550 1550 1549 1549 1549 1548 1548 1548 1548 1548 1548 1548 1548 1548 1548 1547 1547 1547 1546 1546 1546 1545
1558 1559 1560 1560 1560 1560 1560 1561 1561 1560 1560 1560 1559 1558 1558 1557 1556 1555 1554 1553 1552 1551 1551 1550 1550 1549 1549 1549 1549 1548 1549 1548 1548 1548 1548 1548 1548 1548 1547 1547 1546 1546 1545
1559 1560 1561 1561 1562 1562 1562 1562 1562 1562 1562 1561 1560 1560 1559 1558 1557 1556 1555 1554 1553 1552 1552 1551 1550 1550 1550 1549 1549 1549 1549 1549 1549 1549 1548 1548 1548 1548 1547 1547 1546 1545 1544
1561 1562 1562 1563 1563 1564 1564 1564 1564 1564 1563 1563 1562 1561 1560 1559 1558 1557 1556 1555 1554 1553 1552 1552 1551 1551 1550 1550 1550 1550 1550 1549 1549 1549 1549 1549 1549 1548 1547 1547 1546 1545 1544
1562 1563 1563 1564 1565 1565 1565 1565 1565 1565 1564 1564 1563 1562 1561 1560 1559 1558 1557 1556 1555 1554 1553 1553 1552 1552 1552 1551 1551 1551 1550 1550 1550 1549 1549 1549 1548 1548 1548 1547 1546 1545 1544
1562 1563 1564 1565 1566 1566 1567 1567 1566 1566 1566 1565 1564 1564 1563 1562 1561 1559 1558 1557 1556 1555 1555 1554 1553 1553 1552 1552 1552 1551 1551 1551 1550 1550 1550 1549 1549 1548 1548 1547 1546 1545 1544
1563 1564 1565 1566 1567 1567 1568 1568 1568 1567 1567 1566 1566 1565 1564 1563 1562 1561 1560 1558 1557 1557 1556 1555 1554 1554 1553 1553 1552 1552 1552 1552 1551 1551 1550 1550 1549 1549 1548 1547 1546 1545 1544
1564 1565 1566 1567 1568 1568 1569 1569 1569 1569 1568 1568 1567 1567 1566 1565 1563 1562 1561 1560 1559 1558 1557 1556 1555 1555 1554 1554 1553 1553 1553 1552 1552 1552 1551 1551 1550 1549 1548 1547 1546 1545 1544
1565 1566 1567 1568 1569 1569 1570 1570 1570 1570 1569 1569 1568 1568 1567 1566 1565 1564 1562 1561 1560 1559 1558 1557 1556 1556 1555 1555 1554 1554 1554 1554 1553 1553 1552 1552 1551 1550 1549 1548 1547 1545 1544
1565 1566 1567 1568 1569 1570 1570 1570 1570 1570 1570 1570 1569 1569 1568 1567 1566 1565 1563 1562 1561 1560 1559 1558 1558 1557 1556 1556 1556 1555 1555 1555 1555 1554 1554 1553 1552 1551 1550 1548 1547 1546 1544
1565 1566 1567 1568 1569 1570 1571 1571 1571 1571 1571 1571 1570 1570 1569 1568 1567 1566 1565 1563 1562 1561 1560 1559 1559 1558 1557 1557 1557 1556 1556 1557 1556 1555 1555 1554 1553 1552 1550 1549 1548 1546 1545
1564 1565 1567 1568 1569 1570 1571 1571 1571 1571 1571 1571 1571 1570 1570 1569 1568 1567 1566 1565 1563 1562 1561 1560 1560 1559 1558 1558 1558 1558 1557 1557 1557 1557 1555 1555 1554 1553 1551 1550 1548 1547 1546
1563 1565 1567 1568 1569 1570 1571 1571 1571 1572 1572 1572 1571 1571 1570 1569 1569 1568 1567 1566 1565 1563 1562 1561 1561 1560 1559 1559 1558 1558 1558 1558 1557 1557 1556 1555 1554 1553 1552 1551 1549 1548 1546
1562 1564 1566 1567 1568 1569 1570 1571 1572 1572 1572 1572 1572 1571 1571 1570 1570 1569 1568 1567 1566 1564 1563 1562 1561 1561 1560 1559 1559 1558 1558 1558 1557 1557 1556 1555 1554 1553 1552 1551 1550 1548 1547
1560 1562 1564 1566 1567 1568 1570 1570 1571 1572 1572 1572 1572 1571 1571 1571 1570 1569 1568 1567 1566 1565 1564 1563 1562 1561 1561 1560 1559 1559 1558 1558 1557 1557 1556 1555 1554 1553 1552 1551 1550 1549 1547